• Processing (Info)

  • MPEC 2006-Q36 : 2006 QQ56

    The following Minor Planet Electronic Circular may be linked-to from your own Web pages, but must not otherwise be redistributed electronically.

    A form allowing access to any MPEC is at the bottom of this page.


    Read MPEC 2006-Q35 Read MPEC 2006-Q37


    M.P.E.C. 2006-Q36                                Issued 2006 Aug. 26, 19:58 UT
    
         The Minor Planet Electronic Circulars contain information on unusual
             minor planets and routine data on comets.  They are published
       on behalf of Commission 20 of the International Astronomical Union by the
              Minor Planet Center, Smithsonian Astrophysical Observatory,
                              Cambridge, MA 02138, U.S.A.
    
                      Supported in part by the Brinson Foundation
                      Supported in part by the TABASGO Foundation
                 Prepared using the Tamkin Foundation Computer Network
    
                                  MPC@CFA.HARVARD.EDU
              URL http://cfa-www.harvard.edu/iau/mpc.html  ISSN 1523-6714
    
                                       2006 QQ56
    
    Observations:
         K06Q56Q* C2006 08 25.26715 21 54 34.46 +16 46 49.4          17.9   EQ036704
         K06Q56Q  C2006 08 25.27685 21 54 31.84 +16 45 32.9          18.7   EQ036704
         K06Q56Q  C2006 08 25.28656 21 54 29.27 +16 44 16.1          18.5   EQ036704
         K06Q56Q  C2006 08 25.30601 21 54 24.03 +16 41 40.6          18.7   EQ036704
         K06Q56Q  C2006 08 26.60773 21 51 44.10 +13 51 46.9          18.4 V EQ036E12
         K06Q56Q  C2006 08 26.60815 21 51 43.95 +13 51 43.1          18.4 V EQ036E12
         K06Q56Q  C2006 08 26.60856 21 51 43.84 +13 51 39.3          18.2 V EQ036E12
         K06Q56Q  C2006 08 26.79417 21 51 42.03 +13 16 37.1          17.8 R EQ036118
         K06Q56Q  C2006 08 26.79755 21 51 41.33 +13 16 08.5          18.2 R EQ036118
         K06Q56Q  C2006 08 26.80093 21 51 40.71 +13 15 41.5          18.2 R EQ036118
         K06Q56Q  C2006 08 26.80430 21 51 40.01 +13 15 13.9          17.6 R EQ036118
         K06Q56Q  C2006 08 26.80768 21 51 39.33 +13 14 46.0          18.2 R EQ036118
         K06Q56Q  C2006 08 26.81105 21 51 38.60 +13 14 18.6          17.9 R EQ036118
    
    Observer details:
    118 Modra.  Observers L. Kornos, J. Toth.  0.6-m f/5.5 reflector + CCD.
    704 Lincoln Laboratory ETS, New Mexico.  Observers M. Bezpalko, L. Manguso,
        D. Torres, R. Kracke, H. Love, G. Spitz, J. Kistler.  Measurers J. Stuart,
        J. Kommers.  1.0-m f/2.15 reflector + CCD.
    E12 Siding Spring Survey.  Observer R. H. McNaught.  Measurers E. C. Beshore,
        E. J. Christensen, G. J. Garradd, A. R. Gibbs, A. D. Grauer, R. E. Hill,
        R. A. Kowalski, S. M. Larson, R. H. McNaught.  0.5-m Uppsala Schmidt + CCD.
    
    Orbital elements:
    2006 QQ56                                                Earth MOID = 0.0189 AU
    Epoch 2006 Sept. 22.0 TT = JDT 2454000.5                MPC
    M 225.12304              (2000.0)            P               Q
    n   1.00554058     Peri.  332.86400     -0.72172338     -0.69203648
    a   0.9867406      Node   163.31973     +0.64368638     -0.67854689
    e   0.0465884      Incl.    2.83026     +0.25452545     -0.24629176
    P   0.98           H   25.4           G   0.15           U   6
    Residuals in seconds of arc
    060825 704  0.2+  0.1+    060826 E12  0.2-  0.0     060826 118  0.1+  0.0
    060825 704  0.2-  0.0     060826 E12  0.2-  0.3-    060826 118  0.2+  0.3-
    060825 704  0.3+  0.1+    060826 118  0.1+  0.7+    060826 118  0.4-  0.2-
    060825 704  0.3-  0.2-    060826 118  0.4-  0.4-
    060826 E12  0.4+  0.3+    060826 118  0.4+  0.2+
    
    Ephemeris:
    2006 QQ56                a,e,i = 0.98, 0.05, 3                   q = 0.9382
    Date    TT    R. A. (2000) Decl.     Delta      r     Elong.  Phase     V
    2006 08 23    21 59.05   +21 31.0    0.0229   1.031   146.8    32.5    18.6
    2006 08 28    21 49.06   +10 27.8    0.0210   1.030   157.8    21.8    18.1
    2006 09 02    21 39.60   -02 23.8    0.0203   1.029   163.1    16.6    17.9
    2006 09 07    21 31.53   -15 18.6    0.0210   1.027   156.1    23.4    18.2
    2006 09 12    21 25.11   -26 38.3    0.0228   1.025   144.7    34.5    18.7
    2006 09 17    21 20.51   -35 39.5    0.0256   1.023   134.1    44.9    19.2
    2006 09 22    21 18.25   -42 25.3    0.0289   1.021   125.2    53.4    19.7
    2006 09 27    21 18.67   -47 22.0    0.0326   1.018   118.1    60.3    20.2
    2006 10 02    21 21.71   -50 59.4    0.0364   1.015   112.3    65.8    20.6
    2006 10 07    21 26.82   -53 42.2    0.0401   1.012   107.4    70.5    20.9
    2006 10 12    21 33.27   -55 46.6    0.0436   1.009   103.1    74.5    21.2
    
    Timothy B. Spahr             (C) Copyright 2006 MPC           M.P.E.C. 2006-Q36
    

    Read MPEC 2006-Q35 Read MPEC 2006-Q37


    MPEC number:

    Enter an MPEC number in one of the following forms:

    • 1997-B01 (the full form)
    • J97B01 (the packed version of the full form)
    • B01 (the abbreviated form)